TimeEDT,TemperatureF,Dew PointF,Humidity,Sea Level PressureIn,VisibilityMPH,Wind Direction,Wind SpeedMPH,Gust SpeedMPH,PrecipitationIn,Events,Conditions,WindDirDegrees,DateUTC
12:56 AM,55.0,46.0,72,30.13,10.0,Calm,Calm,-,N/A,,Overcast,0,2013-03-31 04:56:00
1:56 AM,55.0,46.0,72,30.13,10.0,SSE,5.8,-,N/A,,Mostly Cloudy,150,2013-03-31 05:56:00
2:56 AM,55.9,44.1,64,30.12,10.0,Calm,Calm,-,N/A,,Mostly Cloudy,0,2013-03-31 06:56:00
3:56 AM,54.0,44.1,69,30.11,10.0,South,4.6,-,N/A,,Scattered Clouds,180,2013-03-31 07:56:00
4:56 AM,53.1,46.0,77,30.11,10.0,SSW,6.9,-,N/A,,Scattered Clouds,200,2013-03-31 08:56:00
5:56 AM,53.1,46.9,80,30.12,10.0,SSW,5.8,-,N/A,,Partly Cloudy,200,2013-03-31 09:56:00
6:56 AM,55.0,48.0,77,30.12,10.0,SSW,5.8,-,N/A,,Mostly Cloudy,200,2013-03-31 10:56:00
7:56 AM,57.0,50.0,77,30.12,10.0,South,6.9,-,N/A,,Scattered Clouds,190,2013-03-31 11:56:00
8:56 AM,61.0,51.1,70,30.12,10.0,SSW,10.4,-,N/A,,Mostly Cloudy,200,2013-03-31 12:56:00
9:56 AM,66.9,51.1,57,30.12,10.0,SW,11.5,-,N/A,,Mostly Cloudy,220,2013-03-31 13:56:00
10:56 AM,66.9,52.0,59,30.12,10.0,SW,8.1,-,N/A,,Mostly Cloudy,220,2013-03-31 14:56:00
11:56 AM,73.0,48.0,41,30.10,10.0,SW,13.8,24.2,N/A,,Mostly Cloudy,230,2013-03-31 15:56:00
12:56 PM,79.0,51.1,38,30.08,10.0,SW,16.1,20.7,N/A,,Mostly Cloudy,220,2013-03-31 16:56:00
1:56 PM,77.0,52.0,42,30.05,10.0,SSW,13.8,23.0,N/A,,Mostly Cloudy,210,2013-03-31 17:56:00
2:56 PM,78.1,52.0,40,30.02,10.0,SW,17.3,21.9,N/A,,Mostly Cloudy,220,2013-03-31 18:56:00
3:56 PM,78.1,52.0,40,30.00,10.0,SW,15.0,-,N/A,,Mostly Cloudy,220,2013-03-31 19:56:00
4:56 PM,78.1,53.1,42,29.98,10.0,SW,11.5,-,N/A,,Mostly Cloudy,230,2013-03-31 20:56:00
5:56 PM,78.1,53.1,42,29.98,10.0,WSW,17.3,23.0,N/A,,Mostly Cloudy,240,2013-03-31 21:56:00
6:56 PM,77.0,52.0,42,29.98,10.0,WSW,13.8,-,N/A,,Mostly Cloudy,240,2013-03-31 22:56:00
7:56 PM,72.0,53.1,51,29.98,10.0,SW,8.1,-,N/A,,Scattered Clouds,230,2013-03-31 23:56:00
8:56 PM,68.0,52.0,56,29.98,10.0,SW,8.1,-,N/A,,Partly Cloudy,220,2013-04-01 00:56:00
9:56 PM,66.0,51.1,59,29.99,10.0,SSW,10.4,-,N/A,,Partly Cloudy,210,2013-04-01 01:56:00
10:56 PM,64.9,52.0,63,30.01,10.0,SW,12.7,-,N/A,,Partly Cloudy,230,2013-04-01 02:56:00
11:56 PM,63.0,54.0,72,30.00,10.0,SW,10.4,-,N/A,,Scattered Clouds,220,2013-04-01 03:56:00